Location: Caltech
(34.1382°N, 118.1253°W)
Time: 23:45:56
(UTC-07:00)

Iridium 68 - Visible Passes

Search period start: 01 September 2014 00:00
Search period end: 11 September 2014 00:00
Orbit: 776 x 779 km, 86.4° (Epoch: 01 September)

Date Brightness Start Highest point End Pass type
(mag) Time Alt. Az. Time Alt. Az. Time Alt. Az.
01 Sep 7.3 20:35:51 21° E 20:35:51 21° E 20:39:28 10° NE visible
01 Sep 7.4 22:16:17 35° WNW 22:16:17 35° WNW 22:20:49 10° NNW visible
02 Sep 7.9 20:02:00 10° E 20:02:28 10° ENE 20:03:13 10° ENE visible
02 Sep 6.2 21:42:26 70° W 21:42:27 70° W 21:47:40 10° N visible
03 Sep 6.0 21:08:32 58° ESE 21:08:58 60° E 21:14:06 10° N visible
03 Sep 8.7 22:48:58 12° W 22:50:04 12° WNW 22:52:08 10° NW visible
04 Sep 6.8 20:34:33 28° ESE 20:35:36 31° E 20:40:07 10° NNE visible
04 Sep 8.0 22:14:59 22° WSW 22:16:16 24° W 22:20:26 10° NNW visible
05 Sep 7.5 20:00:30 14° ESE 20:02:20 16° E 20:05:26 10° NE visible
05 Sep 6.9 21:40:55 34° SW 21:42:35 46° W 21:47:35 10° NNW visible
06 Sep 5.9 21:06:44 35° S 21:09:02 90° W 21:14:15 10° N visible
07 Sep 6.3 20:32:23 21° SSE 20:35:35 46° E 20:40:32 10° NNE visible
07 Sep 8.6 22:13:21 10° WSW 22:16:30 16° WNW 22:19:41 10° NW visible
08 Sep 7.1 19:58:10 10° SE 20:02:15 24° E 20:06:21 10° NNE visible
08 Sep 7.7 21:38:12 10° SW 21:42:45 31° W 21:47:20 10° NNW visible
09 Sep 6.5 21:04:00 10° SSW 21:09:07 60° W 21:14:16 10° N visible
10 Sep 5.9 20:30:27 10° S 20:35:36 70° E 20:40:47 10° N visible
10 Sep 9.0 22:15:56 10° W 22:16:48 10° WNW 22:17:40 10° WNW visible
